カタログに戻る

STARLINK-37849

運用中通信SSO
NORAD 69499·PAYLOAD·🇺🇸 United States

打ち上げ Jun 11, 2026 から Vandenberg Space Force Base

Loading…

次のパス (今後24時間)

TLE

最新Source: CelesTrak SupGP

元期: Sep 14, 2026, 21:14 UTC

1 69499C 26131X   26257.88520833  .00027384  00000+0  85023-3 0  2570
2 69499  97.2829 278.9096 0001308  89.5051 212.2768 15.33419271    12

AllMySatでSTARLINK-37849をリアルタイム追跡

Download on the App Store